TimeCST,TemperatureF,Dew PointF,Humidity,Sea Level PressureIn,VisibilityMPH,Wind Direction,Wind SpeedMPH,Gust SpeedMPH,PrecipitationIn,Events,Conditions,WindDirDegrees,DateUTC
12:15 AM,-13.2,-18.6,77,30.12,10.0,Calm,Calm,-,N/A,,Scattered Clouds,0,2014-01-24 06:15:00
12:35 AM,-13.4,-18.8,77,30.11,10.0,Calm,Calm,-,N/A,,Clear,0,2014-01-24 06:35:00
12:55 AM,-13.0,-18.0,78,30.09,10.0,Calm,Calm,-,N/A,,Scattered Clouds,0,2014-01-24 06:55:00
1:15 AM,-12.5,-17.5,78,30.07,10.0,Calm,Calm,-,N/A,,Scattered Clouds,0,2014-01-24 07:15:00
1:35 AM,-11.7,-16.6,79,30.05,10.0,Calm,Calm,-,N/A,,Mostly Cloudy,0,2014-01-24 07:35:00
1:55 AM,-10.7,-15.5,79,30.04,10.0,Calm,Calm,-,N/A,,Overcast,0,2014-01-24 07:55:00
2:15 AM,-9.0,-14.3,78,30.00,10.0,South,4.6,-,N/A,,Overcast,190,2014-01-24 08:15:00
2:35 AM,-8.3,-14.1,76,29.98,10.0,Calm,Calm,-,N/A,,Overcast,0,2014-01-24 08:35:00
2:55 AM,-6.5,-13.2,73,29.96,10.0,South,5.8,-,N/A,,Overcast,180,2014-01-24 08:55:00
3:15 AM,-6.0,-12.8,72,29.93,10.0,South,3.5,-,N/A,,Overcast,180,2014-01-24 09:15:00
3:35 AM,-5.8,-13.0,71,29.89,10.0,Calm,Calm,-,N/A,,Overcast,0,2014-01-24 09:35:00
3:55 AM,-4.5,-11.4,72,29.87,10.0,South,5.8,-,N/A,,Overcast,190,2014-01-24 09:55:00
4:15 AM,-3.1,-10.5,71,29.85,10.0,South,6.9,-,N/A,,Overcast,190,2014-01-24 10:15:00
4:35 AM,-1.8,-9.8,69,29.82,10.0,South,4.6,-,N/A,,Overcast,180,2014-01-24 10:35:00
4:55 AM,0.3,-8.7,66,29.80,10.0,SSW,6.9,-,N/A,,Overcast,200,2014-01-24 10:55:00
5:15 AM,1.8,-8.0,64,29.78,10.0,SSW,8.1,18.4,N/A,,Overcast,210,2014-01-24 11:15:00
5:35 AM,2.7,-7.8,62,29.77,10.0,SSW,6.9,17.3,N/A,,Overcast,210,2014-01-24 11:35:00
5:55 AM,3.0,-6.7,64,29.75,7.0,SSW,6.9,18.4,N/A,,Overcast,210,2014-01-24 11:55:00
6:15 AM,3.2,-6.7,63,29.73,10.0,SSW,8.1,-,N/A,,Overcast,210,2014-01-24 12:15:00
6:35 AM,3.6,-6.2,64,29.74,5.0,SW,9.2,-,N/A,Snow,Light Snow,230,2014-01-24 12:35:00
6:55 AM,2.8,-3.1,76,29.73,1.0,SW,8.1,-,N/A,Snow,Snow,220,2014-01-24 12:55:00
7:15 AM,2.7,-2.4,79,29.71,1.5,SSW,4.6,-,N/A,Snow,Light Snow,210,2014-01-24 13:15:00
7:35 AM,2.8,-2.2,79,29.70,1.8,SW,4.6,-,N/A,Snow,Light Snow,220,2014-01-24 13:35:00
7:55 AM,3.2,-2.2,78,29.69,1.8,SW,3.5,-,N/A,Snow,Light Snow,230,2014-01-24 13:55:00
8:15 AM,3.7,-1.3,80,29.67,2.0,SSW,3.5,-,N/A,Snow,Light Snow,210,2014-01-24 14:15:00
8:35 AM,4.1,-0.8,80,29.66,1.5,SW,6.9,-,N/A,Snow,Light Snow,230,2014-01-24 14:35:00
8:55 AM,5.0,-0.0,80,29.64,2.0,Calm,Calm,-,N/A,Snow,Light Snow,0,2014-01-24 14:55:00
9:15 AM,5.9,1.0,80,29.62,2.0,WSW,4.6,-,N/A,Snow,Light Snow,240,2014-01-24 15:15:00
9:35 AM,7.0,2.1,80,29.61,2.0,SW,5.8,-,N/A,Snow,Light Snow,220,2014-01-24 15:35:00
9:55 AM,8.2,3.2,80,29.60,3.0,SW,6.9,-,N/A,Snow,Light Snow,230,2014-01-24 15:55:00
10:15 AM,9.3,4.1,79,29.59,3.0,SW,5.8,-,N/A,Snow,Light Snow,220,2014-01-24 16:15:00
10:35 AM,10.2,4.8,79,29.58,4.0,SW,8.1,-,N/A,Snow,Light Snow,220,2014-01-24 16:35:00
10:55 AM,11.3,5.5,78,29.57,5.0,SW,4.6,-,N/A,Snow,Light Snow,220,2014-01-24 16:55:00
11:15 AM,12.2,5.9,76,29.55,4.0,SW,8.1,-,N/A,Snow,Light Snow,220,2014-01-24 17:15:00
11:35 AM,12.7,6.4,76,29.53,7.0,SW,5.8,-,N/A,Snow,Light Snow,230,2014-01-24 17:35:00
11:55 AM,13.1,6.8,76,29.52,7.0,SW,5.8,-,N/A,Snow,Light Snow,230,2014-01-24 17:55:00
12:15 PM,13.8,7.7,77,29.49,3.0,SSW,3.5,-,N/A,Snow,Light Snow,210,2014-01-24 18:15:00
12:35 PM,14.0,8.6,79,29.49,3.0,SW,4.6,-,N/A,Snow,Light Snow,230,2014-01-24 18:35:00
12:55 PM,14.5,9.9,82,29.47,3.0,Calm,Calm,-,N/A,Snow,Light Snow,0,2014-01-24 18:55:00
1:15 PM,15.1,10.8,83,29.46,4.0,SW,4.6,-,N/A,Snow,Light Snow,230,2014-01-24 19:15:00
1:35 PM,15.6,10.8,81,29.45,5.0,WSW,5.8,-,N/A,Snow,Light Snow,240,2014-01-24 19:35:00
1:55 PM,15.8,10.9,81,29.44,7.0,SW,4.6,-,N/A,,Overcast,230,2014-01-24 19:55:00
2:15 PM,15.8,11.1,82,29.43,5.0,SW,5.8,-,N/A,,Haze,220,2014-01-24 20:15:00
2:35 PM,16.3,11.8,82,29.42,2.5,WSW,4.6,-,N/A,Snow,Light Snow,240,2014-01-24 20:35:00
2:55 PM,16.7,12.7,84,29.41,1.8,Calm,Calm,-,N/A,Snow,Light Snow,0,2014-01-24 20:55:00
3:15 PM,17.1,12.9,84,29.39,5.0,Calm,Calm,-,N/A,Snow,Light Snow,0,2014-01-24 21:15:00
3:35 PM,17.4,13.8,86,29.39,1.5,SW,3.5,-,0.01,Snow,Light Snow,220,2014-01-24 21:35:00
3:55 PM,17.6,14.0,86,29.38,1.0,SSW,3.5,-,0.01,Snow,Light Snow,210,2014-01-24 21:55:00
4:15 PM,17.8,14.7,88,29.37,1.0,Calm,Calm,-,N/A,Snow,Light Snow,0,2014-01-24 22:15:00
4:35 PM,18.0,14.9,88,29.36,1.2,Calm,Calm,-,0.01,Snow,Light Snow,0,2014-01-24 22:35:00
4:55 PM,18.3,15.4,89,29.36,2.5,Calm,Calm,-,0.01,Snow,Light Snow,0,2014-01-24 22:55:00
5:15 PM,18.5,15.8,89,29.35,2.0,Calm,Calm,-,N/A,Snow,Light Snow,0,2014-01-24 23:15:00
5:35 PM,19.0,16.3,89,29.35,1.8,Calm,Calm,-,N/A,Snow,Light Snow,0,2014-01-24 23:35:00
5:55 PM,19.0,16.3,89,29.34,5.0,Calm,Calm,-,N/A,Snow,Light Snow,0,2014-01-24 23:55:00
6:15 PM,19.4,16.5,89,29.34,7.0,Calm,Calm,-,N/A,Snow,Light Snow,0,2014-01-25 00:15:00
6:35 PM,19.6,16.7,89,29.33,4.0,SW,3.5,-,N/A,Snow,Light Snow,230,2014-01-25 00:35:00
6:55 PM,20.1,17.4,89,29.33,1.8,Calm,Calm,-,N/A,Snow,Light Snow,0,2014-01-25 00:55:00
7:15 PM,20.3,18.0,91,29.31,2.5,Calm,Calm,-,0.02,Snow,Light Snow,0,2014-01-25 01:15:00
7:35 PM,21.4,18.9,90,29.30,7.0,WSW,3.5,-,0.02,Snow,Light Snow,250,2014-01-25 01:35:00
7:55 PM,22.5,19.4,88,29.30,7.0,West,10.4,-,0.02,Snow,Light Snow,280,2014-01-25 01:55:00
8:15 PM,22.8,19.8,88,29.30,7.0,West,11.5,17.3,N/A,Snow,Light Snow,270,2014-01-25 02:15:00
8:35 PM,23.0,19.6,87,29.29,4.0,West,9.2,-,N/A,Snow,Light Snow,270,2014-01-25 02:35:00
8:55 PM,23.0,19.9,88,29.28,5.0,West,10.4,17.3,N/A,Snow,Light Snow,270,2014-01-25 02:55:00
9:15 PM,23.0,19.9,88,29.27,10.0,West,9.2,-,N/A,Snow,Light Snow,270,2014-01-25 03:15:00
9:35 PM,23.4,20.1,87,29.27,7.0,West,9.2,-,N/A,Snow,Light Snow,270,2014-01-25 03:35:00
9:55 PM,23.4,19.4,85,29.27,10.0,West,11.5,18.4,N/A,,Mostly Cloudy,280,2014-01-25 03:55:00
10:15 PM,23.2,18.5,82,29.27,10.0,West,10.4,17.3,N/A,,Scattered Clouds,280,2014-01-25 04:15:00
10:35 PM,23.9,18.5,80,29.27,10.0,West,10.4,18.4,N/A,Snow,Light Snow,280,2014-01-25 04:35:00
10:55 PM,23.9,17.8,77,29.27,10.0,WNW,11.5,-,N/A,Snow,Light Snow,290,2014-01-25 04:55:00
11:15 PM,23.0,16.2,75,29.28,10.0,WNW,11.5,23.0,N/A,,Overcast,290,2014-01-25 05:15:00
11:35 PM,22.3,16.3,78,29.29,4.0,NW,12.7,20.7,N/A,Snow,Light Snow,320,2014-01-25 05:35:00
11:55 PM,21.9,11.7,65,29.30,10.0,NW,16.1,25.3,N/A,,Overcast,310,2014-01-25 05:55:00